COSMOS 533

Satellite information

Favourite Embed

Satellite Type and Status

PAYLOADIN ORBIT

Key statistics

Satellite COSMOS 533 at a glance.

Uptime

19359

Days in orbit

Revolutions

≈ 12.7

Per day

Orbit

LEO

Low Earth Orbit

Inclination

74.0

Latest

Satellite identification and parameters

Extended collection of information and parameters for COSMOS 533.

Object identification

Identified? True

Debris? False

Object name: COSMOS 533

International designator: 1972-087F

Object number (NORAD): 6268

Object ID (CCSDS): 6268

Country: COMMONWEALTH OF INDEPENDENT STATES (CIS)

Current information (Y/N): Y

RCS size: MEDIUM

Orbital parameters

Period: 113.6 minutes

Inclination: 74.0328 deg

SMA: 7769.838 km

Apoapsis: 1467.936 km

Periapsis: 1315.469 km

RAAN: 155.442 deg

Eccentricy: 0.00981146

Argument of periapsis: 266.5336 deg

Mean anomaly: 115.8518 deg

Mean motion: 12.67607617 rev/day

Mean motion (dot): 0.00000016 rev/day2

B* drag term: 0.00016761539 1/REarth

Two-line elements (TLE)

Creation date: Nov. 1, 2025, 7:40 p.m.

Reference frame: TEME

Reference center: EARTH

Epoch: Nov. 1, 2025, 12:53 p.m. UTC

TLE line 0: 0 COSMOS 533

TLE line 1: 1 06268U 72087F 25305.53724693 .00000016 00000-0 16762-3 0 9992

TLE line 2: 2 06268 74.0328 155.4420 0098115 266.5336 115.8518 12.67607617452456

Live tracking on map

Real-time ground track for satellite COSMOS 533.

In-orbit conjunctions

A list of the most updated potential collisions computed for object COSMOS 533.

Target Orbit TCA Probability of collision Miss distance Type
DELTA 1 DEB SSO 2024-06-04 05:29:18 0.0121005 38.0 (m) DEBRIS

Associated space launch

Military communications satellites

COSMOS 533 was lifted into orbit during the mission ‘Kosmos-3M | Strela-1M 33-40’, on board a Kosmos-3M space rocket.

The launch took place on Nov. 1, 1972, 2:08 a.m. from 132/2.

For more information about the launch, click the button.

Launch to space Kosmos-3M | Strela-1M 33-40
Kosmos-3M | Strela-1M 33-40

Agency: N/A

Status: Launch Successful

Launch date: Nov. 1, 1972, 2:08 a.m. UTC

Rocket: Kosmos-3M

Launch pad: 132/2

Location: Plesetsk Cosmodrome, Russian Federation

...

Latest news about this satellite

There are no fresh news available about this satellite. Check back as we update our databases every day.


Newsletter sign-up

Weekly statistics, charts and insights to help you stay on top of the space industry.